| time (UTC) | temp C | wind direction | speed KPH | gust KPH | rain 1hr cm | rain 24hr cm | rain mn cm | humidity % | barometer mb |
| 20260904095030 | 19 | 247 | 37.0 | 51.5 | 0.00 | 0.00 | 0.00 | 84 | 1008.3 |
| 20260904094030 | 20 | 260 | 54.7 | 67.6 | 0.00 | 0.00 | 0.00 | 83 | 1007.8 |
| 20260904093031 | 20 | 251 | 51.5 | 67.6 | 0.00 | 0.00 | 0.00 | 85 | 1007.3 |
| 20260904092029 | 21 | 224 | 40.2 | 67.6 | 0.00 | 0.00 | 0.00 | 83 | 1007.5 |
| 20260904091030 | 21 | 229 | 40.2 | 62.8 | 0.00 | 0.00 | 0.00 | 82 | 1007.5 |
| 20260904090030 | 21 | 231 | 41.8 | 69.2 | 0.00 | 0.00 | 0.00 | 82 | 1007.5 |
| 20260904085030 | 21 | 216 | 38.6 | 59.5 | 0.00 | 0.00 | 0.00 | 82 | 1007.5 |
| 20260904084030 | 21 | 216 | 33.8 | 61.2 | 0.00 | 0.00 | 0.00 | 82 | 1007.6 |
| 20260904083030 | 21 | 224 | 35.4 | 56.3 | 0.00 | 0.00 | 0.00 | 83 | 1007.4 |
| 20260904082030 | 21 | 228 | 37.0 | 62.8 | 0.00 | 0.00 | 0.00 | 84 | 1007.6 |
| 20260904081030 | 21 | 219 | 35.4 | 61.2 | 0.00 | 0.00 | 0.00 | 84 | 1007.5 |
| 20260904080030 | 21 | 214 | 33.8 | 54.7 | 0.00 | 0.00 | 0.00 | 84 | 1007.6 |
| 20260904075029 | 21 | 211 | 35.4 | 61.2 | 0.00 | 0.00 | 0.00 | 84 | 1007.7 |
| 20260904074030 | 21 | 217 | 29.0 | 46.7 | 0.00 | 0.00 | 0.00 | 85 | 1007.9 |
| 20260904073030 | 20 | 225 | 35.4 | 57.9 | 0.00 | 0.00 | 0.00 | 85 | 1008.0 |
| 20260904072030 | 20 | 215 | 32.2 | 56.3 | 0.00 | 0.00 | 0.00 | 85 | 1008.1 |
| 20260904071030 | 20 | 209 | 27.4 | 49.9 | 0.00 | 0.00 | 0.00 | 85 | 1008.2 |
| 20260904070030 | 20 | 216 | 29.0 | 49.9 | 0.00 | 0.00 | 0.00 | 85 | 1008.4 |
| 20260904065030 | 20 | 212 | 27.4 | 45.1 | 0.00 | 0.00 | 0.00 | 86 | 1008.5 |
| 20260904064030 | 20 | 202 | 24.1 | 40.2 | 0.00 | 0.00 | 0.00 | 86 | 1008.5 |
| 20260904063030 | 20 | 223 | 25.7 | 51.5 | 0.00 | 0.00 | 0.00 | 86 | 1008.6 |
| 20260904062030 | 20 | 218 | 27.4 | 53.1 | 0.00 | 0.00 | 0.00 | 86 | 1008.7 |
| 20260904061030 | 20 | 210 | 27.4 | 48.3 | 0.00 | 0.00 | 0.00 | 87 | 1008.7 |
| 20260904060030 | 20 | 208 | 24.1 | 45.1 | 0.00 | 0.00 | 0.00 | 87 | 1009.0 |
| 20260904055030 | 20 | 217 | 24.1 | 43.5 | 0.00 | 0.00 | 0.00 | 87 | 1008.9 |
| 20260904054029 | 20 | 207 | 24.1 | 48.3 | 0.00 | 0.00 | 0.00 | 87 | 1009.0 |
| 20260904053033 | 20 | 212 | 27.4 | 48.3 | 0.00 | 0.00 | 0.00 | 87 | 1009.1 |
| 20260904052030 | 20 | 206 | 22.5 | 38.6 | 0.00 | 0.00 | 0.00 | 88 | 1009.4 |
| 20260904051030 | 20 | 200 | 19.3 | 33.8 | 0.00 | 0.00 | 0.00 | 88 | 1009.4 |
| 20260904050030 | 20 | 209 | 22.5 | 40.2 | 0.00 | 0.00 | 0.00 | 88 | 1009.5 |
| 20260904045030 | 20 | 208 | 20.9 | 38.6 | 0.00 | 0.00 | 0.00 | 89 | 1009.8 |
| 20260904044030 | 20 | 205 | 20.9 | 38.6 | 0.00 | 0.00 | 0.00 | 89 | 1009.9 |
| 20260904043030 | 20 | 206 | 16.1 | 33.8 | 0.00 | 0.00 | 0.00 | 89 | 1010.1 |
| 20260904042030 | 20 | 209 | 16.1 | 30.6 | 0.00 | 0.00 | 0.00 | 89 | 1010.1 |
| 20260904041029 | 20 | 209 | 17.7 | 30.6 | 0.00 | 0.00 | 0.00 | 89 | 1010.3 |
| 20260904040030 | 20 | 211 | 17.7 | 38.6 | 0.00 | 0.00 | 0.00 | 90 | 1010.5 |
| 20260904035030 | 20 | 210 | 20.9 | 37.0 | 0.00 | 0.00 | 0.00 | 90 | 1010.5 |
| 20260904034030 | 19 | 213 | 19.3 | 30.6 | 0.00 | 0.00 | 0.00 | 90 | 1010.7 |
| 20260904033030 | 19 | 210 | 17.7 | 30.6 | 0.00 | 0.00 | 0.00 | 91 | 1010.7 |
| 20260904032030 | 19 | 199 | 14.5 | 29.0 | 0.00 | 0.00 | 0.00 | 91 | 1010.7 |
| 20260904031029 | 19 | 213 | 14.5 | 27.4 | 0.00 | 0.00 | 0.00 | 91 | 1010.9 |
| 20260904030030 | 19 | 196 | 14.5 | 25.7 | 0.00 | 0.00 | 0.00 | 91 | 1011.1 |
| 20260904025030 | 19 | 195 | 12.9 | 27.4 | 0.00 | 0.00 | 0.00 | 91 | 1011.1 |
| 20260904024030 | 19 | 190 | 12.9 | 22.5 | 0.00 | 0.00 | 0.00 | 91 | 1011.2 |
| 20260904023030 | 20 | 205 | 12.9 | 24.1 | 0.00 | 0.00 | 0.00 | 91 | 1011.3 |
| 20260904022030 | 20 | 197 | 11.3 | 24.1 | 0.00 | 0.00 | 0.00 | 90 | 1011.4 |
| 20260904021030 | 20 | 202 | 14.5 | 24.1 | 0.00 | 0.00 | 0.00 | 90 | 1011.6 |
| 20260904020030 | 20 | 177 | 11.3 | 24.1 | 0.00 | 0.00 | 0.00 | 90 | 1011.8 |
| 20260904015030 | 20 | 204 | 16.1 | 27.4 | 0.00 | 0.00 | 0.00 | 90 | 1011.9 |
| 20260904014030 | 20 | 202 | 17.7 | 32.2 | 0.00 | 0.00 | 0.00 | 90 | 1011.9 |
| 20260904013030 | 20 | 211 | 17.7 | 29.0 | 0.00 | 0.00 | 0.00 | 90 | 1012.1 |
| 20260904012030 | 20 | 200 | 17.7 | 32.2 | 0.00 | 0.00 | 0.00 | 90 | 1012.2 |
| 20260904011030 | 20 | 210 | 20.9 | 35.4 | 0.00 | 0.00 | 0.00 | 90 | 1012.4 |
| 20260904010031 | 20 | 205 | 17.7 | 33.8 | 0.00 | 0.00 | 0.00 | 90 | 1012.5 |
| 20260904005030 | 20 | 207 | 19.3 | 30.6 | 0.00 | 0.00 | 0.00 | 90 | 1012.7 |
| 20260904004029 | 20 | 210 | 17.7 | 30.6 | 0.00 | 0.00 | 0.00 | 90 | 1012.7 |
| 20260904003030 | 20 | 197 | 17.7 | 30.6 | 0.00 | 0.00 | 0.00 | 90 | 1012.8 |
| 20260904002030 | 20 | 203 | 16.1 | 25.7 | 0.00 | 0.00 | 0.00 | 90 | 1012.8 |
| 20260904001030 | 20 | 202 | 17.7 | 29.0 | 0.00 | 0.00 | 0.00 | 90 | 1012.9 |
| 20260904000030 | 20 | 199 | 14.5 | 29.0 | 0.00 | 0.00 | 0.00 | 91 | 1012.9 |
| 20260903235029 | 20 | 201 | 14.5 | 27.4 | 0.00 | 0.00 | 0.00 | 91 | 1012.9 |
| 20260903234030 | 20 | 200 | 16.1 | 32.2 | 0.00 | 0.00 | 0.00 | 91 | 1013.1 |
| 20260903233030 | 20 | 207 | 14.5 | 29.0 | 0.00 | 0.00 | 0.00 | 91 | 1013.2 |
| 20260903232030 | 19 | 191 | 12.9 | 22.5 | 0.00 | 0.00 | 0.00 | 91 | 1013.4 |
| 20260903231029 | 19 | 194 | 14.5 | 27.4 | 0.00 | 0.00 | 0.00 | 91 | 1013.5 |
| 20260903230030 | 19 | 202 | 12.9 | 27.4 | 0.00 | 0.00 | 0.00 | 91 | 1013.6 |
| 20260903225030 | 19 | 204 | 14.5 | 29.0 | 0.00 | 0.00 | 0.00 | 91 | 1013.9 |
| 20260903224030 | 19 | 201 | 14.5 | 24.1 | 0.00 | 0.00 | 0.00 | 91 | 1013.9 |
| 20260903223030 | 19 | 188 | 11.3 | 24.1 | 0.00 | 0.00 | 0.00 | 91 | 1014.0 |
| 20260903222029 | 19 | 202 | 12.9 | 24.1 | 0.00 | 0.00 | 0.00 | 91 | 1014.3 |
| 20260903221030 | 19 | 200 | 11.3 | 24.1 | 0.00 | 0.00 | 0.00 | 91 | 1014.3 |
| 20260903220030 | 19 | 196 | 11.3 | 20.9 | 0.00 | 0.00 | 0.18 | 91 | 1014.6 |
| 20260903215029 | 19 | 208 | 11.3 | 22.5 | 0.00 | 0.00 | 0.18 | 91 | 1014.6 |
| 20260903214029 | 19 | 200 | 11.3 | 22.5 | 0.00 | 0.00 | 0.18 | 91 | 1014.7 |
| 20260903213030 | 19 | 200 | 9.7 | 20.9 | 0.00 | 0.00 | 0.18 | 90 | 1014.8 |
| 20260903212030 | 19 | 193 | 11.3 | 20.9 | 0.00 | 0.00 | 0.18 | 90 | 1014.8 |
| 20260903211030 | 19 | 210 | 14.5 | 27.4 | 0.00 | 0.00 | 0.15 | 90 | 1014.9 |
| 20260903210030 | 19 | 201 | 9.7 | 22.5 | 0.00 | 0.00 | 0.15 | 89 | 1015.0 |
| 20260903205030 | 19 | 187 | 9.7 | 17.7 | 0.00 | 0.00 | 0.15 | 89 | 1015.0 |
| 20260903204029 | 19 | 190 | 6.4 | 17.7 | 0.00 | 0.00 | 0.15 | 89 | 1015.2 |
| 20260903203030 | 19 | 185 | 9.7 | 17.7 | 0.00 | 0.00 | 0.15 | 88 | 1015.3 |
| 20260903202030 | 19 | 187 | 6.4 | 12.9 | 0.00 | 0.00 | 0.15 | 88 | 1015.2 |
| 20260903201030 | 19 | 195 | 6.4 | 16.1 | 0.00 | 0.00 | 0.15 | 88 | 1015.3 |
| 20260903200029 | 19 | 190 | 8.0 | 17.7 | 0.00 | 0.00 | 0.15 | 89 | 1015.3 |
| 20260903195030 | 19 | 217 | 8.0 | 17.7 | 0.00 | 0.00 | 0.15 | 89 | 1015.4 |
| 20260903194030 | 20 | 215 | 11.3 | 20.9 | 0.00 | 0.00 | 0.15 | 88 | 1015.6 |
| 20260903193030 | 20 | 230 | 14.5 | 24.1 | 0.00 | 0.00 | 0.15 | 88 | 1015.6 |
| 20260903192030 | 20 | 225 | 19.3 | 29.0 | 0.00 | 0.00 | 0.15 | 88 | 1015.7 |
| 20260903191029 | 20 | 232 | 17.7 | 25.7 | 0.00 | 0.00 | 0.15 | 88 | 1015.6 |
| 20260903190030 | 20 | 226 | 19.3 | 29.0 | 0.00 | 0.00 | 0.15 | 88 | 1015.8 |
| 20260903185030 | 20 | 226 | 17.7 | 24.1 | 0.00 | 0.00 | 0.15 | 87 | 1015.6 |
| 20260903184029 | 20 | 230 | 16.1 | 24.1 | 0.00 | 0.00 | 0.15 | 87 | 1015.7 |
| 20260903183030 | 20 | 235 | 19.3 | 25.7 | 0.00 | 0.00 | 0.15 | 86 | 1015.8 |
| 20260903182030 | 20 | 241 | 25.7 | 33.8 | 0.00 | 0.00 | 0.15 | 86 | 1015.8 |
| 20260903181030 | 20 | 225 | 20.9 | 30.6 | 0.00 | 0.00 | 0.15 | 86 | 1015.8 |
| 20260903180030 | 20 | 228 | 20.9 | 27.4 | 0.00 | 0.00 | 0.15 | 86 | 1015.7 |
| 20260903175030 | 20 | 239 | 20.9 | 27.4 | 0.00 | 0.00 | 0.15 | 85 | 1015.6 |
| 20260903174030 | 20 | 236 | 20.9 | 25.7 | 0.00 | 0.00 | 0.15 | 84 | 1015.9 |
| 20260903173030 | 20 | 239 | 19.3 | 25.7 | 0.00 | 0.00 | 0.15 | 84 | 1015.4 |
| 20260903172030 | 20 | 238 | 19.3 | 25.7 | 0.00 | 0.00 | 0.15 | 84 | 1015.2 |
| 20260903171030 | 20 | 234 | 20.9 | 25.7 | 0.00 | 0.00 | 0.15 | 84 | 1015.5 |
| 20260903170030 | 20 | 230 | 17.7 | 24.1 | 0.00 | 0.00 | 0.15 | 85 | 1015.4 |
| 20260903165030 | 20 | 240 | 19.3 | 24.1 | 0.00 | 0.00 | 0.15 | 85 | 1015.3 |
| 20260903164030 | 20 | 240 | 20.9 | 27.4 | 0.00 | 0.00 | 0.15 | 84 | 1015.5 |
| 20260903163029 | 20 | 246 | 24.1 | 32.2 | 0.00 | 0.00 | 0.15 | 83 | 1015.4 |
| 20260903162030 | 20 | 245 | 25.7 | 33.8 | 0.00 | 0.00 | 0.15 | 82 | 1015.6 |
| 20260903161030 | 20 | 246 | 25.7 | 33.8 | 0.00 | 0.00 | 0.15 | 82 | 1015.5 |
| 20260903160030 | 20 | 240 | 20.9 | 29.0 | 0.00 | 0.00 | 0.15 | 83 | 1015.5 |
| 20260903155030 | 20 | 236 | 20.9 | 32.2 | 0.00 | 0.00 | 0.15 | 83 | 1015.5 |
| 20260903154029 | 20 | 237 | 24.1 | 30.6 | 0.00 | 0.00 | 0.15 | 82 | 1015.6 |
| 20260903153030 | 20 | 237 | 25.7 | 35.4 | 0.00 | 0.00 | 0.15 | 81 | 1015.5 |
| 20260903152030 | 20 | 228 | 25.7 | 38.6 | 0.00 | 0.00 | 0.15 | 82 | 1015.6 |
| 20260903151030 | 20 | 229 | 29.0 | 38.6 | 0.00 | 0.00 | 0.15 | 82 | 1015.5 |
| 20260903150030 | 20 | 236 | 25.7 | 38.6 | 0.00 | 0.00 | 0.15 | 83 | 1015.4 |
| 20260903145030 | 20 | 243 | 27.4 | 41.8 | 0.00 | 0.00 | 0.15 | 82 | 1015.2 |
| 20260903144030 | 20 | 244 | 27.4 | 37.0 | 0.00 | 0.00 | 0.15 | 83 | 1015.3 |
| 20260903143030 | 20 | 257 | 30.6 | 40.2 | 0.00 | 0.00 | 0.15 | 85 | 1015.4 |
| 20260903142030 | 20 | 249 | 38.6 | 45.1 | 0.00 | 0.00 | 0.15 | 83 | 1015.3 |
| 20260903141030 | 20 | 249 | 27.4 | 40.2 | 0.00 | 0.00 | 0.15 | 84 | 1015.2 |
| 20260903140029 | 20 | 239 | 29.0 | 38.6 | 0.00 | 0.00 | 0.15 | 83 | 1015.4 |
| 20260903135030 | 20 | 247 | 25.7 | 37.0 | 0.00 | 0.00 | 0.15 | 83 | 1015.5 |
| 20260903134030 | 20 | 258 | 30.6 | 40.2 | 0.00 | 0.00 | 0.15 | 82 | 1015.3 |
| 20260903133030 | 20 | 254 | 38.6 | 51.5 | 0.00 | 0.00 | 0.15 | 81 | 1015.1 |
| 20260903132029 | 20 | 263 | 38.6 | 51.5 | 0.00 | 0.00 | 0.15 | 81 | 1015.1 |
| 20260903131030 | 20 | 251 | 38.6 | 48.3 | 0.00 | 0.00 | 0.15 | 82 | 1015.2 |
| 20260903130030 | 20 | 258 | 38.6 | 49.9 | 0.00 | 0.00 | 0.15 | 82 | 1015.1 |
| 20260903125030 | 20 | 252 | 38.6 | 49.9 | 0.00 | 0.00 | 0.15 | 84 | 1015.1 |
| 20260903124030 | 20 | 255 | 37.0 | 48.3 | 0.00 | 0.00 | 0.15 | 83 | 1014.8 |
| 20260903123030 | 20 | 251 | 30.6 | 40.2 | 0.00 | 0.00 | 0.15 | 84 | 1014.9 |
| 20260903122030 | 20 | 239 | 32.2 | 45.1 | 0.00 | 0.00 | 0.15 | 84 | 1014.9 |
| 20260903121030 | 20 | 238 | 30.6 | 41.8 | 0.00 | 0.00 | 0.15 | 84 | 1015.0 |
| 20260903120029 | 20 | 246 | 32.2 | 46.7 | 0.00 | 0.00 | 0.15 | 84 | 1014.8 |
| 20260903115030 | 20 | 253 | 35.4 | 43.5 | 0.00 | 0.00 | 0.15 | 85 | 1014.8 |
| 20260903114030 | 20 | 238 | 35.4 | 46.7 | 0.00 | 0.00 | 0.15 | 85 | 1014.6 |
| 20260903113030 | 20 | 247 | 35.4 | 49.9 | 0.00 | 0.00 | 0.15 | 85 | 1014.4 |
| 20260903112029 | 20 | 247 | 33.8 | 49.9 | 0.00 | 0.00 | 0.15 | 84 | 1014.4 |
| 20260903111030 | 20 | 254 | 37.0 | 49.9 | 0.00 | 0.00 | 0.15 | 84 | 1014.4 |
| 20260903110030 | 20 | 237 | 37.0 | 49.9 | 0.00 | 0.00 | 0.15 | 85 | 1014.4 |
| 20260903105030 | 20 | 256 | 38.6 | 54.7 | 0.00 | 0.00 | 0.15 | 85 | 1014.3 |
| 20260903104029 | 20 | 250 | 40.2 | 54.7 | 0.00 | 0.00 | 0.15 | 84 | 1014.0 |
| 20260903103030 | 20 | 240 | 30.6 | 41.8 | 0.00 | 0.00 | 0.15 | 85 | 1014.3 |
| 20260903102030 | 20 | 244 | 32.2 | 43.5 | 0.00 | 0.00 | 0.15 | 85 | 1014.3 |
| 20260903101029 | 20 | 225 | 30.6 | 43.5 | 0.00 | 0.00 | 0.15 | 86 | 1014.4 |
| 20260903100030 | 20 | 241 | 29.0 | 38.6 | 0.00 | 0.00 | 0.15 | 86 | 1014.4 |